Wind_Speed
41 41 39 38 37 36 34 32 28 26 24 25 24 23 22 22 22 21 19 15 11 11 9 9 9 9 10 11 12 13 16 17 19 22 24 27 29 31 35 38 41 43 43
44 42 44 43 42 40 39 36 33 30 27 26 26 25 25 25 24 25 23 22 16 14 14 14 14 13 13 14 15 16 17 20 22 25 27 28 30 33 34 36 37 38 39
49 50 50 49 47 44 42 39 37 34 33 29 28 27 27 28 27 27 25 23 24 21 18 18 17 17 18 19 19 19 20 21 23 26 28 30 31 32 34 35 35 35 37
54 53 54 53 51 49 46 43 41 38 37 36 32 31 29 29 31 29 28 27 24 23 20 20 20 21 20 21 20 21 22 25 25 27 28 29 29 31 33 35 35 36 36
58 54 55 55 55 54 50 48 45 43 41 39 38 34 33 31 32 32 29 27 26 24 22 24 23 23 23 22 21 23 25 28 29 28 28 29 31 34 36 35 35 35 35
57 57 56 58 58 57 56 53 50 48 45 42 41 39 36 34 33 33 32 28 26 25 24 24 24 23 22 23 25 26 27 28 28 28 28 30 32 35 35 35 35 33 34
55 57 59 57 59 60 59 57 55 53 50 47 45 43 40 37 36 35 34 32 30 29 28 25 24 24 24 25 25 27 28 30 27 29 29 30 33 34 35 36 34 34 33
47 51 54 59 60 60 60 61 59 58 55 52 48 47 43 41 39 39 37 36 35 33 30 29 27 27 28 27 27 30 31 30 27 28 30 31 34 35 36 35 32 32 26
43 48 48 54 59 60 62 61 62 61 61 57 53 51 48 43 41 40 39 39 36 34 32 32 31 31 30 29 30 33 32 28 29 29 33 35 38 37 34 34 29 24 17
49 51 47 54 54 56 60 60 64 64 64 63 58 54 53 48 44 43 41 39 38 37 36 34 33 33 31 32 34 34 30 28 31 35 36 39 41 33 32 30 25 18 21
47 50 55 53 48 51 59 56 61 67 67 67 64 59 55 52 47 45 43 41 40 39 37 36 36 35 33 34 35 34 30 31 33 38 40 39 36 32 28 24 20 19 20
50 53 59 56 53 48 55 57 56 67 68 71 69 64 59 57 52 47 44 42 41 41 41 37 36 36 36 36 36 34 32 34 37 41 40 35 33 24 23 18 19 19 18
52 55 62 65 64 49 44 55 59 61 69 73 73 70 64 61 58 53 47 44 45 42 42 41 40 37 37 34 36 34 34 36 39 41 40 35 29 23 20 18 17 20 20
58 58 61 65 68 60 61 54 56 63 70 71 76 74 70 64 62 57 50 44 44 45 43 44 42 38 38 34 36 35 37 37 39 40 38 32 23 22 18 18 19 19 16
58 56 62 67 73 66 59 78 69 66 70 66 74 77 74 66 63 61 54 48 44 45 45 45 42 40 39 38 38 39 38 40 38 36 37 30 24 22 19 18 15 15 10
60 59 63 69 72 77 80 90 87 71 71 69 72 77 75 68 64 61 57 50 47 42 45 48 43 43 38 42 39 39 37 37 35 35 37 32 24 21 19 18 14 13 10
58 57 63 62 65 76 82 91 89 70 65 66 70 71 73 69 63 60 56 53 48 42 46 50 44 42 41 43 40 39 37 36 35 36 37 31 23 21 20 18 17 13 12
53 51 48 51 56 80 88 96 87 70 71 62 63 64 71 68 63 60 57 52 47 45 48 51 47 44 44 42 41 38 37 36 35 37 36 30 24 22 21 20 19 16 18
40 33 41 53 74 90 99 101 61 55 57 49 51 57 66 65 63 60 57 54 52 46 50 53 50 45 46 44 44 39 38 36 37 35 36 27 23 21 22 23 23 22 19
34 52 72 68 86 99 93 85 61 50 47 41 50 52 59 63 63 60 57 56 54 52 52 55 52 50 48 47 46 41 39 37 37 34 36 25 22 23 24 24 26 26 25
55 68 78 80 74 77 91 76 56 63 58 57 53 56 57 59 64 59 58 56 54 52 55 56 54 51 52 50 48 41 39 38 38 34 35 26 22 21 23 23 25 26 24
61 71 69 68 72 78 66 58 62 57 59 56 57 58 54 57 56 54 56 54 54 56 60 60 59 57 55 50 50 42 40 38 38 34 31 29 22 20 20 22 22 19 19
64 70 70 63 65 53 63 53 56 60 59 50 52 51 52 54 56 57 56 56 58 59 61 64 65 59 54 53 51 46 41 40 40 35 32 30 29 27 23 23 24 25 20
76 64 62 72 65 69 58 50 54 55 57 60 53 50 54 61 61 59 61 64 63 63 66 67 63 58 54 50 52 50 45 43 41 36 34 33 32 29 27 27 27 27 27
81 74 68 68 75 73 61 67 51 52 54 56 54 50 48 64 67 64 66 66 69 69 71 68 66 62 51 52 53 51 47 44 41 40 37 36 33 31 32 29 26 22 20
85 80 75 69 72 74 72 71 61 52 47 47 47 52 56 62 68 69 69 68 69 69 70 69 63 60 56 55 55 53 51 47 44 43 40 38 40 38 35 35 30 30 29
Wind_Direction
233 238 237 237 241 244 247 251 253 249 238 234 237 237 235 236 238 244 244 247 244 237 238 242 254 263 276 281 283 283 285 289 290 293 299 296 293 298 293 296 299 300 300
236 236 238 238 240 242 246 248 247 252 250 237 235 241 242 239 240 244 247 250 243 252 258 264 275 284 280 281 285 292 295 299 301 305 306 309 308 308 309 309 307 306 305
240 233 235 236 237 241 244 246 247 246 249 248 239 240 245 245 245 248 248 248 249 249 259 266 272 279 285 288 288 290 295 303 308 308 312 316 318 317 312 312 312 312 310
240 236 237 237 237 237 239 242 245 244 246 247 245 243 245 247 248 249 250 251 253 258 256 262 267 273 275 276 283 292 301 310 315 317 314 315 315 316 316 317 319 318 313
243 238 238 240 239 238 239 238 241 243 244 245 247 243 245 248 251 252 251 250 254 253 249 252 263 266 271 281 289 299 307 310 313 316 312 313 317 318 319 319 321 318 315
241 241 238 239 241 240 239 238 238 240 242 243 246 247 244 246 250 254 253 251 250 250 251 257 260 268 279 285 293 299 306 309 312 313 314 318 318 319 326 327 322 318 318
239 240 240 238 241 241 240 238 238 237 239 241 243 247 244 245 248 253 256 258 257 257 259 265 268 276 281 289 297 303 308 312 309 311 316 316 317 321 325 324 323 322 320
237 236 240 242 238 240 240 239 237 238 237 237 241 242 246 244 248 252 257 261 264 265 266 268 273 279 286 294 297 306 309 311 310 314 314 316 321 322 324 326 322 323 323
229 244 233 237 240 237 239 240 238 236 238 236 235 240 242 245 245 250 256 260 263 267 271 275 277 281 287 291 300 306 309 308 310 311 310 315 317 318 322 326 323 322 328
234 241 247 231 233 237 237 239 239 236 235 237 234 235 239 241 244 247 253 260 263 269 272 273 276 278 284 292 300 305 305 304 307 309 314 315 317 316 318 324 320 316 317
254 244 254 235 227 246 238 236 242 237 233 235 234 233 236 238 241 245 251 257 264 265 268 266 271 275 281 290 298 300 302 305 310 314 315 313 314 313 315 318 316 310 318
257 253 253 249 244 239 239 244 240 235 234 231 232 232 232 236 237 240 246 254 262 268 264 262 265 273 282 289 297 303 300 306 313 317 315 315 314 303 306 304 310 305 318
261 257 257 255 253 244 227 236 238 238 233 232 230 231 230 233 236 237 242 250 260 265 264 259 267 274 280 291 297 300 301 304 314 319 319 316 311 296 299 299 296 305 310
265 256 254 253 252 246 242 228 233 234 230 232 230 229 229 231 235 237 240 245 258 260 258 261 265 275 281 290 292 299 302 304 312 320 318 310 297 292 293 299 300 305 305
267 259 255 247 242 236 220 242 237 231 224 227 229 228 228 228 233 238 241 245 254 255 257 260 262 273 282 287 291 296 300 304 312 318 325 313 291 285 288 292 297 306 287
271 266 253 241 237 233 219 217 229 224 223 220 227 227 227 228 231 236 239 241 250 251 255 256 259 271 278 284 290 294 299 303 311 314 321 313 291 280 284 287 285 298 264
274 265 252 244 228 215 206 216 220 219 219 216 223 225 227 227 229 234 236 240 246 249 250 256 258 270 277 282 286 291 298 304 309 315 313 309 285 276 278 283 277 265 256
276 263 248 232 221 199 197 211 216 220 219 216 221 223 226 227 228 232 235 236 242 246 251 253 254 269 276 280 284 288 295 302 306 312 312 306 285 274 275 280 278 282 255
264 231 208 184 185 187 200 211 200 215 214 213 224 223 226 227 230 231 234 235 239 245 248 250 252 265 276 279 281 283 292 295 301 308 310 304 285 275 274 276 275 277 277
220 180 170 174 183 192 201 204 201 210 206 216 234 227 228 227 230 231 234 234 237 243 246 249 254 264 276 277 276 281 288 291 297 303 308 296 294 278 276 276 282 279 276
178 175 169 178 182 190 197 200 213 213 229 236 235 229 229 228 229 230 232 237 236 241 245 250 253 264 275 274 272 276 283 289 293 299 302 295 290 285 283 285 289 289 275
179 180 187 183 190 200 216 215 219 223 226 231 239 231 230 231 230 232 235 237 235 241 245 248 255 266 271 268 269 271 279 284 289 291 295 291 287 290 284 285 289 303 283
193 191 193 191 193 205 210 213 221 226 229 231 235 226 226 228 229 230 234 234 236 240 241 249 258 264 265 266 264 266 272 278 285 285 287 288 282 285 291 283 283 287 291
193 190 190 192 192 193 200 207 215 219 213 221 231 223 218 223 227 233 232 236 240 239 244 254 259 262 260 263 263 264 270 274 278 278 278 286 285 281 282 289 293 289 279
191 194 197 187 192 192 197 194 208 212 218 222 219 219 218 221 227 233 236 237 241 244 250 256 258 260 257 259 262 260 264 268 271 271 275 274 286 280 280 288 289 292 291
185 194 201 197 195 198 196 199 210 213 217 217 217 215 223 223 227 232 235 240 244 246 249 251 258 256 258 258 258 258 260 264 266 265 272 268 279 276 280 281 280 277 284
Height
10848 10851 10855 10858 10859 10862 10865 10868 10871 10873 10876 10879 10881 10884 10886 10888 10889 10890 10892 10894 10895 10896 10897 10898 10899 10900 10900 10900 10900 10900 10900 10899 10898 10897 10895 10894 10892 10889 10886 10884 10879 10876 10871
10843 10846 10848 10851 10854 10856 10859 10863 10867 10869 10872 10875 10878 10881 10883 10885 10887 10888 10890 10892 10893 10894 10895 10896 10896 10896 10897 10897 10897 10897 10896 10895 10894 10894 10893 10890 10887 10884 10881 10878 10875 10870 10865
10832 10836 10838 10842 10847 10850 10854 10858 10861 10864 10867 10871 10874 10877 10879 10882 10884 10885 10887 10889 10891 10892 10893 10893 10893 10894 10894 10894 10894 10894 10893 10892 10891 10890 10889 10885 10882 10880 10877 10873 10869 10864 10859
10820 10827 10830 10835 10839 10844 10848 10853 10856 10859 10862 10866 10870 10873 10875 10878 10880 10882 10884 10885 10887 10888 10890 10890 10891 10891 10892 10892 10891 10891 10890 10889 10888 10886 10884 10881 10879 10876 10872 10868 10863 10858 10853
10811 10820 10823 10826 10831 10836 10841 10846 10850 10853 10857 10861 10864 10868 10871 10874 10877 10879 10881 10883 10884 10886 10887 10888 10889 10889 10889 10888 10888 10887 10886 10885 10884 10882 10880 10877 10873 10870 10867 10862 10857 10853 10848
10803 10808 10814 10818 10821 10826 10832 10838 10843 10846 10851 10855 10859 10863 10866 10869 10872 10875 10877 10879 10881 10883 10885 10886 10886 10886 10886 10885 10885 10884 10883 10882 10880 10878 10876 10872 10869 10867 10862 10857 10853 10848 10843
10791 10798 10802 10809 10812 10817 10822 10829 10834 10839 10844 10849 10853 10857 10861 10864 10867 10870 10873 10876 10878 10879 10881 10882 10881 10882 10882 10881 10881 10880 10879 10877 10876 10874 10871 10868 10865 10862 10858 10853 10849 10843 10839
10783 10790 10793 10796 10803 10807 10812 10819 10824 10830 10834 10841 10847 10851 10854 10858 10861 10864 10868 10871 10874 10876 10877 10877 10877 10877 10877 10878 10877 10876 10874 10873 10871 10868 10866 10865 10861 10858 10853 10849 10844 10839 10836
10777 10774 10781 10785 10789 10796 10802 10807 10814 10820 10825 10830 10836 10844 10848 10852 10855 10858 10862 10865 10868 10870 10872 10872 10872 10872 10873 10873 10872 10871 10870 10868 10866 10865 10862 10860 10856 10852 10848 10845 10841 10836 10834
10767 10765 10768 10775 10779 10785 10791 10798 10802 10809 10815 10821 10827 10833 10840 10845 10849 10852 10855 10859 10862 10865 10867 10868 10868 10868 10869 10868 10868 10866 10866 10864 10863 10860 10858 10854 10851 10847 10844 10840 10838 10834 10832
10752 10756 10755 10764 10771 10779 10779 10784 10789 10797 10804 10809 10816 10823 10830 10836 10841 10844 10849 10852 10856 10859 10861 10862 10864 10864 10864 10863 10863 10862 10862 10860 10859 10856 10852 10849 10845 10842 10839 10836 10835 10832 10829
10739 10742 10742 10746 10756 10761 10765 10769 10775 10784 10790 10796 10804 10812 10819 10826 10831 10837 10841 10845 10849 10853 10855 10856 10858 10858 10858 10858 10858 10858 10856 10855 10853 10850 10846 10843 10840 10837 10835 10833 10831 10828 10826
10724 10727 10727 10732 10736 10748 10754 10757 10759 10769 10774 10783 10791 10799 10808 10814 10823 10828 10833 10838 10843 10847 10849 10851 10852 10852 10852 10853 10851 10853 10851 10850 10848 10845 10841 10837 10834 10832 10831 10829 10827 10824 10822
10704 10707 10710 10713 10717 10728 10734 10734 10743 10751 10757 10769 10778 10787 10795 10803 10813 10819 10825 10831 10835 10840 10842 10844 10846 10846 10846 10848 10846 10847 10847 10846 10843 10839 10835 10831 10830 10828 10827 10825 10823 10820 10818
10684 10687 10688 10693 10695 10707 10724 10719 10722 10734 10742 10754 10765 10774 10783 10794 10802 10811 10818 10824 10828 10832 10835 10838 10839 10838 10841 10842 10842 10842 10842 10840 10838 10834 10830 10826 10825 10824 10823 10821 10819 10817 10815
10663 10663 10659 10661 10671 10680 10697 10704 10706 10722 10726 10742 10751 10761 10774 10785 10793 10802 10809 10816 10821 10824 10828 10831 10833 10832 10836 10835 10836 10836 10836 10835 10833 10830 10826 10822 10820 10820 10820 10818 10816 10814 10812
10641 10635 10630 10635 10643 10651 10668 10677 10688 10702 10716 10730 10738 10751 10765 10775 10783 10793 10800 10807 10813 10817 10821 10823 10827 10825 10831 10828 10829 10830 10830 10829 10827 10825 10821 10816 10815 10816 10815 10814 10813 10811 10810
10617 10609 10608 10614 10622 10636 10651 10652 10681 10702 10715 10723 10731 10744 10756 10766 10774 10785 10792 10800 10804 10808 10812 10816 10820 10818 10823 10824 10822 10824 10823 10823 10821 10820 10816 10812 10811 10811 10811 10810 10809 10808 10807
10602 10598 10597 10605 10622 10633 10641 10645 10679 10699 10712 10715 10726 10737 10747 10757 10766 10774 10782 10790 10795 10800 10804 10808 10812 10813 10815 10817 10816 10817 10817 10816 10816 10814 10812 10807 10806 10807 10807 10806 10805 10804 10802
10599 10597 10604 10613 10624 10634 10646 10661 10679 10692 10701 10711 10720 10729 10737 10746 10755 10764 10773 10779 10786 10791 10795 10799 10804 10807 10807 10809 10809 10810 10810 10810 10810 10808 10808 10805 10803 10802 10801 10801 10801 10799 10798
10601 10605 10609 10618 10624 10633 10643 10666 10680 10687 10694 10705 10714 10721 10727 10736 10746 10755 10763 10770 10775 10782 10786 10791 10795 10798 10801 10801 10802 10803 10803 10803 10804 10804 10801 10802 10798 10797 10797 10796 10795 10792 10792
10610 10612 10615 10619 10628 10636 10644 10668 10673 10678 10684 10694 10703 10710 10718 10727 10736 10744 10752 10759 10766 10772 10777 10781 10786 10790 10792 10793 10793 10795 10795 10796 10797 10797 10796 10795 10794 10792 10791 10790 10790 10788 10786
10612 10615 10617 10622 10629 10638 10648 10659 10664 10669 10678 10690 10697 10702 10709 10717 10725 10733 10742 10750 10756 10761 10766 10771 10777 10781 10783 10784 10785 10785 10787 10789 10790 10790 10790 10788 10787 10787 10785 10784 10784 10783 10782
10608 10614 10619 10621 10629 10635 10646 10649 10653 10663 10670 10676 10682 10687 10697 10707 10716 10724 10733 10740 10745 10751 10756 10762 10767 10772 10772 10775 10776 10776 10778 10781 10781 10782 10782 10782 10781 10780 10779 10778 10778 10778 10777
10602 10610 10613 10616 10625 10630 10636 10645 10647 10652 10658 10665 10671 10679 10687 10698 10706 10714 10722 10729 10734 10740 10745 10751 10756 10761 10763 10765 10767 10767 10768 10771 10772 10773 10773 10773 10773 10773 10772 10771 10770 10770 10770
10590 10602 10609 10612 10618 10620 10624 10631 10635 10641 10649 10658 10666 10673 10679 10687 10695 10702 10711 10716 10722 10728 10734 10739 10744 10749 10753 10754 10757 10758 10758 10761 10762 10764 10764 10764 10765 10765 10764 10763 10763 10762 10762